Flag for U.S.A. Weather past 2 weeks in Pomona, California, U.S.A.

Now
67 °F

Clear.


Feels Like: 67 °F
Forecast: 67 / 99 °F
Wind: No wind

Location: Chino Airport

Current Time: Jul 24, 2014 at 2:03:26 AM

Latest Report: Jul 24, 2014 at 12:53 AM


Visibility: 5 mi

Pressure: 29.90 "Hg

Humidity: 71%

Dew point: 57 °F

Location of PomonaLocation

Historic Weather in Pomona — Graph

°F

Pomona temperature yesterday

Maximum temperature yesterday: 96 °F (at 1:53 PM)
Minimum temperature yesterday: 57 °F (at 4:53 AM)
Average temperature yesterday: 77 °F

Past Weeks' High & Low Weather Summary

 TemperatureHumidityPressure
High96 °F (Jul 23, 1:53 PM)97% (Jul 11, 6:53 AM)30.06 "Hg (Jul 11, 6:53 AM)
Low57 °F (Jul 23, 4:53 AM)23% (Jul 23, 1:53 PM)29.83 "Hg (Jul 13, 5:53 PM)
Average73 °F66%29.96 "Hg
* Reported Jul 9 12:53 AM — Jul 24 12:53 AM, Pomona, Weather by CustomWeather, © 2014

Note: Actual official high and low records may vary slightly from our data, if they occured in-between our weather recording intervals... More about our weather records

Advertising

Pomona weather history for previous 24 hours

 ConditionsComfort  
Time TempWeatherWind HumidityBarometerVisibility
12:53 AM
Jul 24
67 °FClear.No wind71%29.90 "Hg5 mi
11:53 PM
Jul 23
69 °FClear.No wind66%29.90 "Hg7 mi
10:53 PM71 °FClear.3 mph57%29.90 "Hg10 mi
9:53 PM74 °FClear.5 mph52%29.90 "Hg9 mi
8:53 PM76 °FSunny.7 mph48%29.89 "Hg9 mi
7:53 PM80 °FPassing clouds.8 mph38%29.88 "Hg10 mi
6:53 PM87 °FPassing clouds.9 mph25%29.88 "Hg10 mi
5:53 PM90 °FPassing clouds.14 mph23%29.88 "Hg10 mi
4:53 PM93 °FPassing clouds.15 mph23%29.88 "Hg10 mi
3:53 PM95 °FPassing clouds.14 mph27%29.88 "Hg10 mi
2:53 PM96 °FPassing clouds.14 mph26%29.90 "Hg10 mi
1:53 PM96 °FSunny.13 mph23%29.92 "Hg10 mi
12:53 PM95 °FPassing clouds.9 mph26%29.94 "Hg10 mi
11:53 AM91 °FPassing clouds.5 mph28%29.96 "Hg10 mi
10:53 AM87 °FPassing clouds.3 mph31%29.98 "Hg10 mi
9:53 AM82 °FSunny.No wind41%30.00 "Hg10 mi
8:53 AM76 °FSunny.No wind48%30.01 "Hg10 mi
7:53 AM70 °FSunny.No wind57%30.01 "Hg10 mi
6:53 AM63 °FClear.No wind78%30.01 "Hg10 mi
5:53 AM60 °FClear.No wind83%30.00 "Hg6 mi
4:53 AM57 °FClear.No wind87%29.99 "Hg8 mi
3:53 AM61 °FClear.No wind81%29.99 "Hg7 mi
2:53 AM62 °FClear.No wind78%30.00 "Hg7 mi
Weather by CustomWeather, © 2014

See weather overviewHow to use our weather pages